TELSTAR 19V (43562 NORAD) Tracking and Keplerian Element Data

This shows tracking and keplerian element data for the satellite.

Feedback or suggestion? Click here.




ElementValue
Catalog43562
NameTELSTAR 19V
Epoch Orbit2025
Epoch Day12.9547163
Epoch Year2024
RAAN157.9877
Inclination0.0298
Eccentricity7.51E-05
Argument of Perigee36.9323
Mean Anonmoly197.6895
Mean Motion1.0026985
Decay Rate-2.71E-06
L11 43562U 18059A 24012.95471630 -.00000271 00000+0 00000+0 0 9996
L22 43562 0.0298 157.9877 0000751 36.9323 197.6895 1.00269850 20259



Live tracking and technical data element details for TELSTAR 19V (NORAD 43562). TELSTAR 19V can be tracked NOW for your location showing map with azimuth and elevation plus other details from your city location.







IsCatalogInMostPopularTable: catalog: 43562, numindb: 1048
Update: records affected: 1



GetName: 43562 TELSTAR 19V

Hit Count: updated at: Fri, 01 Mar 2024 11:44:09 GMT